Location: Radomski Observatory
(40.2854°N, 79.5145°W)
Time: 01:00:09
(UTC-04:00)

Daily predictions for brighter satellites

Satellite Brightness Start Highest point End
(mag) Time Altitude Azimuth Time Altitude Azimuth Time Altitude Azimuth
Cosmos 2360 Rocket 4.1 00:17:04 24° NNE 00:17:04 24° NNE 00:19:11 10° NNE
Cosmos 2263 Rocket 4.3 00:38:05 10° NW 00:39:56 20° NW 00:39:56 20° NW
Cosmos 2322 Rocket 4.3 00:45:08 20° NW 00:45:08 20° NW 00:49:08 10° N
ATLAS CENTAUR R/B 4.3 01:07:39 70° W 01:09:01 79° NW 01:35:12 10° NE
Cosmos 2278 Rocket 4.1 01:21:30 10° NNW 01:23:57 25° N 01:23:57 25° N
ATLAS 3B R/B 3.5 01:54:42 51° NE 01:54:42 51° NE 02:00:01 10° NE
COSMOS 2455 4.2 02:15:10 35° N 02:15:10 35° N 02:18:41 10° NNE
Cosmos 2219 Rocket 4.0 02:21:35 25° NNW 02:21:35 25° NNW 02:24:24 10° N
SL-16 R/B 3.6 02:32:46 34° NNE 02:32:46 34° NNE 02:35:55 10° NNE
Cosmos 2333 Rocket 3.9 02:33:47 28° NNW 02:33:47 28° NNW 02:37:02 10° N
Cosmos 2237 Rocket 3.8 02:37:53 29° NNW 02:37:53 29° NNW 02:41:05 10° N
USA 238 DEB 4.1 02:44:48 62° NE 02:44:48 62° NE 02:50:33 10° NE
USA 238 4.1 02:44:55 62° NE 02:44:55 62° NE 02:50:39 10° NE
USA 234 4.3 02:40:52 10° ENE 02:45:16 34° E 02:45:16 34° E
CZ-4C R/B 3.1 03:01:21 45° NNE 03:01:21 45° NNE 03:05:27 10° NNE
NOSS 3-2 (A) 4.3 03:01:04 44° E 03:01:04 44° E 03:06:06 10° NE
CZ-3A R/B 4.0 03:04:31 52° SSE 03:06:44 60° ESE 03:51:20 10° NE
ATLAS 5 CENTAUR R/B 4.4 03:09:56 12° E 03:09:56 12° E 03:11:09 10° E
Cosmos 1603 4.4 03:14:06 52° NE 03:14:06 52° NE 03:18:27 10° NNE
NOSS 3-2 (C) 4.0 03:16:42 50° E 03:16:42 50° E 03:22:22 10° NE
S3M 4.1 03:23:09 73° NE 03:23:09 73° NE 03:28:53 10° N
SL-16 R/B 3.4 03:20:43 31° ESE 03:23:09 44° ENE 03:28:59 10° N
Cosmos 1553 Rocket 4.0 03:43:22 67° NW 03:43:22 67° NW 03:48:58 10° N
Cosmos 1943 3.6 03:43:43 55° ESE 03:43:46 55° ESE 03:49:18 10° NNE
ATLAS 3B R/B 4.3 03:41:56 23° WNW 03:44:06 26° NW 03:50:10 10° NNE
ATLAS CENTAUR R/B 2.9 03:40:28 10° NNW 03:43:55 35° NNE 03:43:55 35° NNE
CZ-2D R/B 2.7 03:40:00 10° NNE 03:45:06 48° E 03:45:24 47° ESE
Cosmos 1745 Rocket 3.9 03:41:08 10° N 03:47:26 78° W 03:47:26 78° W
Cosmos 1726 4.3 03:50:12 24° N 03:50:12 24° N 03:51:45 10° N
Cosmos 494 Rocket 4.4 03:49:58 56° ESE 03:49:58 56° ESE 03:55:07 10° NNE
UNK 4.2 03:52:33 59° NE 03:52:33 59° NE 03:56:45 10° N
Cosmos 2369 Rocket 2.6 03:50:07 10° NNW 03:55:41 62° ENE 03:59:34 20° SE
Spot 4 Rocket 4.2 03:58:15 10° N 04:02:51 59° NW 04:02:51 59° NW
IRS-1D 3.4 03:58:33 10° NNE 04:03:47 88° ESE 04:03:54 85° SSE
Cosmos 1455 3.6 04:05:18 35° E 04:05:18 35° E 04:08:53 10° NNE
ADEOS 3.9 04:03:29 10° N 04:08:04 50° NW 04:08:04 50° NW
BREEZE-M DEB (TANK) 4.1 04:12:18 29° NW 04:14:04 54° NNE 04:21:04 10° ESE
Cosmos 1733 Rocket 4.2 04:10:17 10° N 04:14:26 40° ENE 04:16:56 21° SE
SL-16 R/B 4.1 04:14:39 16° NW 04:15:05 16° NW 04:18:28 10° NNW
ARIANE 5 R/B 2.5 04:10:18 10° N 04:15:31 68° WNW 04:15:40 68° W
Cosmos 1707 Rocket 4.3 04:17:05 42° NW 04:17:05 42° NW 04:20:26 10° N
Cosmos 1331 Rocket 3.8 04:12:13 10° NNW 04:17:29 75° WSW 04:17:46 73° SW
Cosmos 1943 Rocket 3.3 04:17:06 10° N 04:22:31 44° ENE 04:27:52 10° SE
Resurs 1-4 Rocket 2.0 04:17:37 10° N 04:22:53 75° WNW 04:23:37 63° SW
Cosmos 2263 4.3 04:21:33 10° NNW 04:27:22 81° ENE 04:33:09 10° SSE
Cosmos 1184 Rocket 4.3 04:25:15 10° N 04:28:28 37° ENE 04:29:40 27° ESE
USA 234 3.5 04:23:39 10° NE 04:30:05 60° NW 04:32:36 37° W
SeaSat 1 2.8 04:26:23 10° SE 04:31:15 64° ENE 04:36:09 10° NNW
ERS-2 4.0 04:33:42 10° NNW 04:35:33 21° NW 04:35:33 21° NW
ADEOS II 4.5 04:35:08 10° NE 04:38:53 20° E 04:42:37 10° SE
Okean O Rocket 2.2 04:35:31 10° NNE 04:39:55 55° E 04:42:14 26° SSE
Cosmos 2315 Rocket 3.9 04:39:22 38° SSW 04:41:51 68° W 04:48:08 10° N
Cosmos 1825 4.2 04:40:39 10° NNE 04:44:01 29° ENE 04:47:20 10° SE
BREEZE-M DEB (TANK) 4.3 04:43:47 21° W 04:47:23 32° NW 04:50:40 10° NNE
CZ-4C R/B 4.0 04:46:31 15° WNW 04:49:01 19° NNW 04:53:16 10° N
Cosmos 2251 Rocket 4.4 04:48:47 31° W 04:49:33 32° WNW 04:54:15 10° N
EO 1 Del DPAF 3.9 04:50:47 39° WNW 04:50:47 39° WNW 04:53:46 10° NNW
CZ-2D R/B 3.5 04:47:04 10° N 04:51:27 67° WNW 04:52:35 46° SW
UNKNOWN OBJECT B 3.1 04:48:20 10° N 04:51:42 43° WNW 04:51:42 43° WNW
ATLAS 5 CENTAUR R/B 1.8 04:51:30 42° SW 04:53:08 78° NW 04:58:22 10° NNE
CZ-4B R/B 3.5 04:50:35 10° NNE 04:54:08 48° E 04:56:32 19° SSE
BREEZE-M DEB (TANK) 3.3 04:54:10 28° NNW 04:54:47 34° NNE 04:57:02 10° E
Sich 1 Rocket 4.0 04:50:30 10° N 04:54:52 63° E 04:59:13 10° SSE
Cosmos 1869 3.2 04:55:35 48° SSW 04:56:33 69° W 05:00:31 10° N
IRS-1C Rocket 4.0 04:52:18 10° NNE 04:57:37 88° ESE 05:01:15 21° SSW
Cosmos 1933 4.0 04:56:45 15° S 04:59:59 56° E 05:04:02 10° NNE
SL-27 R/B 2.9 05:00:14 29° S 05:01:53 63° ESE 05:05:30 10° NNE
SL-16 R/B 3.3 05:05:49 27° WSW 05:06:54 28° W 05:12:09 10° NW
ADEOS Rocket 4.3 05:01:56 10° NNE 05:09:29 54° E 05:17:00 10° S
CZ-2C R/B 3.5 05:05:11 10° S 05:09:37 72° WSW 05:14:03 10° NNW
CENTAUR R/B 2.5 05:05:36 23° SSW 05:09:38 86° ESE 05:16:30 10° NE
Cosmos 1892 4.1 05:06:32 10° NW 05:08:51 23° WNW 05:08:51 23° WNW
Atlas Centaur 2 4.0 05:10:36 10° S 05:12:25 12° SSE 05:14:23 10° SE
ARGOS Delta rocket 4.1 05:14:35 10° N 05:18:45 42° WNW 05:20:54 24° SW
PSLV R/B 4.2 05:18:27 10° NNE 05:22:46 57° E 05:27:05 10° S
COSMOS 2406 3.3 05:19:14 13° SSW 05:24:27 88° ESE 05:30:14 10° NNE
CZ-2D R/B 3.5 05:20:54 10° NNW 05:24:49 21° WNW 05:26:44 18° W
Cosmos 1862 Rocket 4.2 05:23:06 24° WSW 05:24:53 34° WNW 05:28:55 10° N
MOZ.5/SAFIR/RUBIN 5/SL-8 4.0 05:21:51 10° S 05:26:16 44° W 05:30:43 10° NNW
Nadezhda 1 Rocket 4.0 05:26:07 10° S 05:32:21 79° W 05:38:44 10° N
Okean 2 Rocket 3.6 05:29:37 10° N 05:34:07 65° E 05:38:35 10° SSE
CZ-4B DEB 4.3 05:32:36 10° N 05:37:59 59° WNW 05:43:19 10° SSW
PSLV R/B 3.3 05:35:27 17° W 05:38:01 80° N 05:41:24 10° E
Cosmos 2369 Rocket 3.5 05:35:34 10° WNW 05:39:08 17° W 05:41:02 15° WSW
Cosmos 1455 4.0 05:40:22 14° W 05:41:10 15° WNW 05:43:29 10° NW
CZ-4B R/B 3.4 05:36:17 10° N 05:41:23 49° WNW 05:46:27 10° SW
Okean 1-7 3.1 05:37:38 10° S 05:41:56 83° E 05:46:17 10° N
Cosmos 407 Rocket 3.9 05:38:59 10° S 05:44:07 65° ESE 05:49:21 10° NNE
Meteor PRIRODA 4.0 05:42:23 10° NNE 05:46:09 71° E 05:49:54 10° S
Cosmos 389 Rocket 4.0 05:45:46 16° WSW 05:47:10 20° WNW 05:49:48 10° NNW
Cosmos 2154 Rocket 4.0 05:51:31 10° N 05:57:50 77° W 06:04:10 10° S
Cosmos 1782 Rocket 3.7 05:55:02 10° NNW 05:59:15 51° W 06:03:26 10° SSW
BREEZE-M DEB (TANK) 3.2 06:00:34 11° WSW 06:03:02 77° NNW 06:08:42 10° ENE
AVUM R/B 3.7 06:01:11 10° SSW 06:04:19 63° ESE 06:07:37 10° NNE
Cosmos 1943 Rocket 3.1 06:01:24 10° NW 06:05:59 26° WSW 06:10:30 10° SSW
SeaSat 1 3.9 06:06:09 10° SW 06:09:07 16° WSW 06:12:07 10° WNW
Meteor 2-10 Rocket 4.1 06:03:26 10° S 06:09:14 75° E 06:14:58 10° NNE
COSMOS 2487 2.5 06:06:11 10° SSW 06:09:46 72° WNW 06:13:24 10° NNE
Geosat 4.4 06:05:16 10° NNE 06:10:05 48° WNW 06:14:53 10° SW
Meteor 1-31 Rocket 2.8 06:06:28 10° NNE 06:10:17 87° E 06:14:06 10° SSW
NOAA 6 4.3 06:10:25 10° NNE 06:15:35 75° ESE 06:20:45 10° S
Ariane Rocket 3.9 06:11:07 10° NNE 06:16:05 53° E 06:21:02 10° S
Cosmos 2341 Rocket 4.0 06:11:15 10° NNW 06:17:30 69° W 06:23:46 10° S
CZ-3 R/B 4.3 06:15:54 10° W 06:38:47 25° SW 06:47:07 10° S
